Location: Hackberry
(29.5783°N, 96.8797°W)
Time: 14:49:53
(UTC+00:00)

Vanguard 2 Rocket - Pass Details

Date: 12 November 2024
Orbit: 554 x 3296 km, 32.9° (Epoch: 30 November)

Event Time Altitude Azimuth Distance (km) Brightness Sun altitude
Rises 10:06:57 0° 185° (S) 4,619 10.5 -35.5°
Reaches altitude 10° 10:11:05 10° 167° (SSE) 4,101 10.3 -34.6°
Maximum altitude 10:18:16 18° 128° (SE) 4,164 10.7 -33.0°
Drops below altitude 10° 10:27:38 10° 92° (E) 5,581 11.8 -31.0°
Sets 10:34:47 0° 78° (ENE) 6,996 12.5 -29.4°
